User: anonymous   Login
Location: La Brionne
(46.1728°N, 1.7849°E)
Time: 09:50:12
(UTC+00:00)
Language:

Cosmos 1992 Rocket - Orbit

View from above orbital plane
View from above orbital plane
View from above satellite
View from above satellite

Ground track
Ground track

The orbit data is extracted from the following two-line orbital elements,

1 19770U 89005B   21264.71482881  .00000102  00000-0  41537-4 0  9997
2 19770  74.0449  58.4402 0003972 116.4963 254.4393 14.38883069710297
Epoch (UTC): 21 September 2021 17:09:21
Eccentricity: 0.0003972
inclination: 74.0449°
perigee height: 759 km
apogee height: 765 km
right ascension of ascending node: 58.4402°
argument of perigee: 116.4963°
revolutions per day: 14.38883069
mean anomaly at epoch: 254.4393°
orbit number at epoch: 71029

The dashed part of the orbit path shows where the satellite is in the earth's shadow,  

DLR